[ hide orbit diagram ]
For accurate long-term ephemerides, please instead use our Horizons system.This orbit viewer was implemented using two-body methods, and hence should not be used for determining accurate long-term trajectories (over several years or decades) or planetary encounter circumstances.
Orbital Elements at Epoch 2459000.5 (2020-May-31.0) TDB
Reference: JPL 28 (heliocentric ecliptic J2000)
Element | Value | Uncertainty (1-sigma) | Units |
e | .05616008499142821 | 4.2316e-08 | |
a | 3.032345035496274 | 1.8046e-08 | au |
q | 2.862048280579468 | 1.3066e-07 | au |
i | 9.727887479066389 | 4.279e-06 | deg |
node | 43.83157345673035 | 2.324e-05 | deg |
peri | 337.3158891492187 | 4.2402e-05 | deg |
M | 322.6275076394486 | 3.3541e-05 | deg |
tp | 2459200.723897914053 (2020-Dec-17.22389791) | 0.00017912 | TDB |
period | 1928.707418110118 5.28 | 1.7217e-05 4.714e-08 | d yr |
n | .1866535051504873 | 1.6662e-09 | deg/d |
Q | 3.20264179041308 | 1.9059e-08 | au |
|
| | Orbit Determination Parameters
Additional Information
|
[ show covariance matrix ]
Physical Parameter Table
Parameter |
Symbol |
Value |
Units |
Sigma |
Reference |
Notes |
absolute magnitude |
H |
13.6 |
|
n/a |
MPO432454 |
|
|
91647 (1999 TG96) Discovered 1999-Oct-02 by LINEAR at Socorro |
Reference: 20041028/Numbers.arc | Last Updated: 2004-10-29 |
|
|